sat.trackr.live / text

‹ back to catalog

STARLINK-36786

NORAD 67872 · 2026-034Y

PAYLOAD ACTIVE UNKNOWN

§ Identity

Operator
Country
US
Launch date
2026-02-20
Launch site
AFETR
Launch vehicle
Mass (kg)
RCS (m²)

Purposes: comms

External: N2YO · Heavens-Above · Gunter

§ Orbital elements

Epoch: 2026-09-19T22:04:01.895232Z

Period
94.01 min
Inclination
53.1608°
Eccentricity
0.0001024
Mean motion
15.31717869 rev/d
Perigee alt
470.0 km
Apogee alt
471.4 km
Semi-major
6,848.8 km
B*
4.6889e-4
RAAN
20.6066°
Arg perigee
94.9556°
Mean anomaly
265.1562°
Rev number
3,379

§ Raw data

STARLINK-367861 67872U 26034Y   26262.91946638  .00014221  00000+0  46889-3 0  99962 67872  53.1608  20.6066 0001024  94.9556 265.1562 15.31717869 33797

JSON: /api/v1/satellites/67872 · /tle

For live sub-satellite position, see the globe view (requires WebGL).

§ Visibility from observer

Set your observer location to see the next 7 days of passes ≥ 10°. The values pass through the URL so the page stays shareable.

No JS? Fill the form by hand. The geolocation button needs JavaScript.